TimeCDT,TemperatureF,Dew PointF,Humidity,Sea Level PressureIn,VisibilityMPH,Wind Direction,Wind SpeedMPH,Gust SpeedMPH,PrecipitationIn,Events,Conditions,WindDirDegrees,DateUTC
12:54 AM,34.0,24.1,67,30.23,10.0,North,5.8,-,N/A,,Clear,360,2012-10-30 05:54:00
1:54 AM,33.1,24.1,70,30.22,10.0,North,8.1,-,N/A,,Clear,360,2012-10-30 06:54:00
2:54 AM,32.0,25.0,75,30.21,10.0,North,6.9,-,N/A,,Clear,360,2012-10-30 07:54:00
3:54 AM,32.0,25.0,75,30.18,10.0,North,9.2,-,N/A,,Clear,10,2012-10-30 08:54:00
4:54 AM,32.0,26.1,79,30.18,10.0,North,8.1,-,N/A,,Clear,10,2012-10-30 09:54:00
5:54 AM,32.0,26.1,79,30.17,10.0,North,9.2,-,N/A,,Clear,360,2012-10-30 10:54:00
6:54 AM,32.0,27.0,82,30.16,10.0,North,10.4,-,N/A,,Clear,350,2012-10-30 11:54:00
7:54 AM,30.9,27.0,85,30.14,10.0,North,10.4,-,N/A,,Clear,350,2012-10-30 12:54:00
8:54 AM,30.9,27.0,85,30.13,10.0,NNW,10.4,-,N/A,,Clear,340,2012-10-30 13:54:00
9:54 AM,35.1,28.0,76,30.12,10.0,North,11.5,-,N/A,,Clear,360,2012-10-30 14:54:00
10:54 AM,37.9,21.9,53,30.09,10.0,North,17.3,24.2,N/A,,Clear,10,2012-10-30 15:54:00
11:54 AM,41.0,19.0,41,30.08,10.0,North,17.3,28.8,N/A,,Clear,10,2012-10-30 16:54:00
12:54 PM,41.0,19.0,41,30.05,10.0,North,16.1,25.3,N/A,,Clear,360,2012-10-30 17:54:00
1:54 PM,43.0,19.9,40,30.02,10.0,North,20.7,-,N/A,,Clear,350,2012-10-30 18:54:00
2:54 PM,44.1,19.9,38,30.00,10.0,North,20.7,28.8,N/A,,Clear,350,2012-10-30 19:54:00
3:54 PM,44.1,21.0,40,29.99,10.0,NNW,19.6,28.8,N/A,,Clear,340,2012-10-30 20:54:00
4:54 PM,42.1,19.0,40,30.00,10.0,North,15.0,26.5,N/A,,Clear,360,2012-10-30 21:54:00
5:54 PM,39.0,19.9,46,30.00,10.0,North,13.8,24.2,N/A,,Clear,360,2012-10-30 22:54:00
6:54 PM,36.0,23.0,59,30.01,9.0,North,13.8,-,0.00,Snow,Light Snow,350,2012-10-30 23:54:00
7:54 PM,34.0,23.0,64,30.02,10.0,North,11.5,18.4,0.00,,Clear,360,2012-10-31 00:54:00
8:54 PM,32.0,21.0,64,30.02,10.0,NNE,13.8,23.0,N/A,,Clear,20,2012-10-31 01:54:00
9:54 PM,30.9,21.0,67,30.01,10.0,North,13.8,-,N/A,,Clear,350,2012-10-31 02:54:00
10:54 PM,30.0,21.0,69,29.99,10.0,North,10.4,-,N/A,,Clear,350,2012-10-31 03:54:00
11:54 PM,28.9,21.0,72,29.96,10.0,North,10.4,-,N/A,,Clear,350,2012-10-31 04:54:00